DIRECTV 5 (TEMPO 1)

Last updated on Fri Oct 11 2024 00:02:38 GMT+0000 (Coordinated Universal Time)

1 27426U 02023A 24284.55206120 -.00000050 00000+0 00000+0 0 9993 2 27426 3.2937 82.9638 0003185 118.5423 266.7930 1.00271961 82149
UTC large
Height (km)
Speed (km/s)
/
Latitude / Longitude
Inclination (degrees)
Orbital Period (minutes)
Azimuth
Elevation
Range (km)
Doppler Factor

Next 0 passes for location: London (51.5072 / 0.1276)

Sorry there are no passes over London.